FLOCK 4Y-25 (55027 NORAD) Tracking and Keplerian Element Data

This shows tracking and keplerian element data for the satellite.

Feedback or suggestion? Click here.




ElementValue
Catalog55027
NameFLOCK 4Y-25
Epoch Orbit1249
Epoch Day85.17226731
Epoch Year2023
RAAN145.9695
Inclination97.4854
Eccentricity0.0009696
Argument of Perigee298.335
Mean Anonmoly61.6904
Mean Motion15.15867105
Decay Rate0.00037384
L11 55027U 23001U 23085.17226731 .00037384 00000+0 19467-2 0 9995
L22 55027 97.4854 145.9695 0009696 298.3350 61.6904 15.15867105 12498



Live tracking and technical data element details for FLOCK 4Y-25 (NORAD 55027). FLOCK 4Y-25 can be tracked NOW for your location showing map with azimuth and elevation plus other details from your city location.







IsCatalogInMostPopularTable: catalog: 55027, numindb: 9
Update: records affected: 1



GetName: 55027 FLOCK 4Y-25

Hit Count: updated at: Mon, 27 Mar 2023 07:09:02 GMT